Hourly Data Report for September 08, 2020

GIMLI CLIMATE
MANITOBA
Current Station Operator: ECCC - MSC

50°38'00.000" N
97°03'00.000" W
230.10 m
5031042
71748
PGH

Download Data

Hourly Data (September 2020)
Hourly Data Report for September 8, 2020
TIME Temp Definition
°C
Dew Point Definition
°C
Rel Hum Definition
%
Wind Dir Definition
10's deg

Wind Spd Definition
km/h
Visibility Definition
km
Stn Press Definition
kPa
Hmdx Definition


Wind Chill Definition


Weather Definition


00:00 3.3 1.4 87 30 12   99.71     LegendNANA
01:00 3.6 1.9 89 30 14   99.77     LegendNANA
02:00 3.8 2.0 88 31 13   99.80     LegendNANA
03:00 3.7 2.1 89 31 17   99.81     LegendNANA
04:00 3.7 2.2 90 32 13   99.87     LegendNANA
05:00 3.7 2.4 91 31 12   99.90     LegendNANA
06:00 4.1 2.5 89 28 5   100.04     LegendNANA
07:00 4.2 2.5 89 30 10   100.08     LegendNANA
08:00 5.8 2.9 82 30 12   100.10     LegendNANA
09:00 7.9 2.4 69 34 13   100.15     LegendNANA
10:00 8.2 2.9 69 32 12   100.20     LegendNANA
11:00 9.3 0.4 54 30 5   100.23     LegendNANA
12:00 9.6 1.2 56 28 13   100.17     LegendNANA
13:00 10.6 1.2 52 32 13   100.11     LegendNANA
14:00 11.4 1.5 50 30 12   100.08     LegendNANA
15:00 11.5 -0.6 43 33 14   100.05     LegendNANA
16:00 11.2 -0.5 44 33 13   100.02     LegendNANA
17:00 10.8 -0.2 47 30 10   100.01     LegendNANA
18:00 9.8 0.4 52 28 8   100.01     LegendNANA
19:00 8.1 0.1 57 30 5   100.03     LegendNANA
20:00 3.4 -1.0 73 30 4   100.07     LegendNANA
21:00 2.2 -0.1 85 21 6   100.09     LegendNANA
22:00 0.7 -0.8 90 22 5   100.09     LegendNANA
23:00 0.9 -0.3 92 27 3   100.07     LegendNANA

Notes on Data Quality.

Legend

  • E = Estimated
  • M = Missing
  • NA = Not Available*
  • [empty] = Indicates an unobserved value
Date modified: